カタログに戻る

HULIANWANG DIGUI-103

運用中通信LEO
NORAD 66419·PAYLOAD·🇨🇳 China

打ち上げ Nov 10, 2025 から Wenchang Space Launch Site

Loading…

次のパス (今後24時間)

TLE

最新Source: Space-Track

元期: Sep 14, 2026, 13:38 UTC

1 66419U 25258H   26257.56864734 -.00000080  00000-0  95356-4 0  9994
2 66419  50.0027 334.7482 0000279 126.3342 233.7556 13.29329746 41622

AllMySatでHULIANWANG DIGUI-103をリアルタイム追跡

Download on the App Store